TimeCDT,TemperatureF,Dew PointF,Humidity,Sea Level PressureIn,VisibilityMPH,Wind Direction,Wind SpeedMPH,Gust SpeedMPH,PrecipitationIn,Events,Conditions,WindDirDegrees,DateUTC
12:05 AM,51.8,48.2,88,30.07,10.0,Calm,Calm,-,N/A,,Overcast,0,2012-10-10 05:05:00
12:25 AM,51.8,48.2,88,30.06,10.0,Calm,Calm,-,N/A,,Overcast,0,2012-10-10 05:25:00
12:45 AM,53.6,50.0,88,30.06,9.0,Calm,Calm,-,N/A,,Overcast,0,2012-10-10 05:45:00
1:05 AM,53.6,50.0,88,30.07,10.0,Calm,Calm,-,N/A,,Overcast,0,2012-10-10 06:05:00
1:25 AM,53.6,50.0,88,30.07,8.0,Calm,Calm,-,N/A,,Overcast,0,2012-10-10 06:25:00
1:45 AM,53.6,50.0,88,30.08,8.0,Calm,Calm,-,N/A,,Overcast,0,2012-10-10 06:45:00
2:05 AM,53.6,50.0,88,30.08,8.0,Calm,Calm,-,N/A,,Overcast,0,2012-10-10 07:05:00
2:25 AM,53.6,50.0,88,30.08,9.0,Calm,Calm,-,N/A,,Overcast,0,2012-10-10 07:25:00
2:45 AM,53.6,50.0,88,30.08,10.0,Calm,Calm,-,N/A,,Overcast,0,2012-10-10 07:45:00
3:05 AM,53.6,50.0,88,30.08,9.0,Calm,Calm,-,N/A,,Overcast,0,2012-10-10 08:05:00
3:25 AM,55.4,51.8,88,30.08,9.0,SSE,4.6,-,N/A,,Overcast,160,2012-10-10 08:25:00
3:45 AM,55.4,50.0,82,30.08,9.0,SSE,4.6,-,N/A,,Overcast,150,2012-10-10 08:45:00
4:05 AM,55.4,50.0,82,30.08,9.0,SE,4.6,-,N/A,,Overcast,140,2012-10-10 09:05:00
4:25 AM,55.4,50.0,82,30.08,9.0,SSE,4.6,-,N/A,,Overcast,150,2012-10-10 09:25:00
4:45 AM,55.4,51.8,88,30.09,9.0,Calm,Calm,-,N/A,,Overcast,0,2012-10-10 09:45:00
5:05 AM,55.4,50.0,82,30.10,10.0,Calm,Calm,-,N/A,,Overcast,0,2012-10-10 10:05:00
5:25 AM,55.4,51.8,88,30.10,10.0,SSE,3.5,-,N/A,,Overcast,150,2012-10-10 10:25:00
5:45 AM,55.4,51.8,88,30.10,10.0,SSE,3.5,-,N/A,,Overcast,160,2012-10-10 10:45:00
6:05 AM,55.4,51.8,88,30.11,10.0,Calm,Calm,-,N/A,,Overcast,0,2012-10-10 11:05:00
6:25 AM,55.4,51.8,88,30.12,10.0,Calm,Calm,-,N/A,,Overcast,0,2012-10-10 11:25:00
6:45 AM,55.4,51.8,88,30.13,10.0,Calm,Calm,-,N/A,,Overcast,0,2012-10-10 11:45:00
7:05 AM,55.4,53.6,94,30.13,10.0,Calm,Calm,-,N/A,,Overcast,0,2012-10-10 12:05:00
7:25 AM,55.4,53.6,94,30.14,10.0,Calm,Calm,-,N/A,,Overcast,0,2012-10-10 12:25:00
7:45 AM,57.2,53.6,88,30.14,10.0,Calm,Calm,-,N/A,,Overcast,0,2012-10-10 12:45:00
8:05 AM,57.2,53.6,88,30.15,10.0,Calm,Calm,-,N/A,,Overcast,0,2012-10-10 13:05:00
8:25 AM,59.0,53.6,82,30.16,10.0,Calm,Calm,-,N/A,,Overcast,0,2012-10-10 13:25:00
8:45 AM,60.8,53.6,77,30.16,10.0,NW,4.6,-,N/A,,Overcast,310,2012-10-10 13:45:00
9:05 AM,62.6,53.6,72,30.16,10.0,NW,9.2,-,N/A,,Scattered Clouds,310,2012-10-10 14:05:00
9:25 AM,62.6,53.6,72,30.17,10.0,NNW,10.4,-,N/A,,Clear,340,2012-10-10 14:25:00
9:45 AM,64.4,53.6,68,30.18,10.0,NNW,10.4,-,N/A,,Scattered Clouds,340,2012-10-10 14:45:00
10:05 AM,64.4,53.6,68,30.19,10.0,NW,11.5,16.1,N/A,,Overcast,310,2012-10-10 15:05:00
10:25 AM,64.4,53.6,68,30.20,10.0,NNW,11.5,-,N/A,,Overcast,330,2012-10-10 15:25:00
10:45 AM,62.6,53.6,72,30.21,10.0,NW,8.1,-,N/A,,Overcast,320,2012-10-10 15:45:00
11:05 AM,62.6,53.6,72,30.21,10.0,NNW,10.4,16.1,N/A,,Overcast,340,2012-10-10 16:05:00
11:25 AM,62.6,51.8,68,30.22,10.0,NNW,9.2,-,N/A,,Overcast,340,2012-10-10 16:25:00
11:45 AM,62.6,51.8,68,30.22,10.0,North,6.9,-,N/A,,Overcast,350,2012-10-10 16:45:00
12:05 PM,62.6,51.8,68,30.22,10.0,NNW,4.6,-,N/A,,Overcast,340,2012-10-10 17:05:00
12:25 PM,62.6,50.0,63,30.21,10.0,NNW,6.9,-,N/A,,Overcast,330,2012-10-10 17:25:00
12:45 PM,64.4,50.0,59,30.21,10.0,North,8.1,-,N/A,,Overcast,360,2012-10-10 17:45:00
1:05 PM,64.4,50.0,59,30.20,10.0,NNW,6.9,16.1,N/A,,Mostly Cloudy,330,2012-10-10 18:05:00
1:25 PM,66.2,48.2,52,30.19,10.0,North,8.1,-,N/A,,Mostly Cloudy,360,2012-10-10 18:25:00
1:45 PM,66.2,50.0,56,30.19,10.0,NNW,6.9,-,N/A,,Mostly Cloudy,330,2012-10-10 18:45:00
2:05 PM,64.4,48.2,56,30.19,10.0,NW,9.2,-,N/A,,Scattered Clouds,320,2012-10-10 19:05:00
2:25 PM,68.0,48.2,49,30.18,10.0,NNW,10.4,-,N/A,,Scattered Clouds,340,2012-10-10 19:25:00
2:45 PM,66.2,46.4,49,30.18,10.0,NNW,10.4,-,N/A,,Partly Cloudy,340,2012-10-10 19:45:00
3:05 PM,68.0,44.6,43,30.18,10.0,North,10.4,-,N/A,,Clear,360,2012-10-10 20:05:00
3:25 PM,68.0,44.6,43,30.18,10.0,NNW,6.9,-,N/A,,Clear,340,2012-10-10 20:25:00
3:45 PM,66.2,39.2,37,30.18,10.0,NNW,10.4,-,N/A,,Clear,330,2012-10-10 20:45:00
4:05 PM,66.2,37.4,35,30.18,10.0,NNE,10.4,-,N/A,,Clear,20,2012-10-10 21:05:00
4:25 PM,66.2,39.2,37,30.18,10.0,North,9.2,-,N/A,,Clear,360,2012-10-10 21:25:00
4:45 PM,66.2,37.4,35,30.18,10.0,NNW,8.1,-,N/A,,Clear,340,2012-10-10 21:45:00
5:05 PM,64.4,37.4,37,30.18,10.0,NNW,6.9,-,N/A,,Clear,330,2012-10-10 22:05:00
5:25 PM,64.4,37.4,37,30.18,10.0,North,5.8,-,N/A,,Clear,350,2012-10-10 22:25:00
5:45 PM,62.6,37.4,39,30.18,10.0,NNW,4.6,-,N/A,,Clear,340,2012-10-10 22:45:00
6:05 PM,60.8,39.2,45,30.19,10.0,NNW,3.5,-,N/A,,Clear,330,2012-10-10 23:05:00
6:25 PM,59.0,41.0,51,30.19,10.0,NNW,3.5,-,N/A,,Clear,330,2012-10-10 23:25:00
6:45 PM,55.4,41.0,58,30.20,10.0,Calm,Calm,-,N/A,,Clear,0,2012-10-10 23:45:00
7:05 PM,53.6,42.8,67,30.20,10.0,Calm,Calm,-,N/A,,Clear,0,2012-10-11 00:05:00
7:25 PM,53.6,42.8,67,30.21,10.0,Calm,Calm,-,N/A,,Clear,0,2012-10-11 00:25:00
7:45 PM,50.0,44.6,82,30.21,10.0,Calm,Calm,-,N/A,,Clear,0,2012-10-11 00:45:00
8:05 PM,48.2,44.6,87,30.21,10.0,Calm,Calm,-,N/A,,Clear,0,2012-10-11 01:05:00
8:25 PM,48.2,44.6,87,30.22,10.0,Calm,Calm,-,N/A,,Clear,0,2012-10-11 01:25:00
8:45 PM,48.2,44.6,87,30.22,10.0,WNW,3.5,-,N/A,,Clear,300,2012-10-11 01:45:00
9:05 PM,46.4,42.8,87,30.23,10.0,WNW,3.5,-,N/A,,Clear,290,2012-10-11 02:05:00
9:25 PM,46.4,42.8,87,30.24,10.0,Calm,Calm,-,N/A,,Clear,0,2012-10-11 02:25:00
9:45 PM,46.4,44.6,93,30.24,10.0,Calm,Calm,-,N/A,,Clear,0,2012-10-11 02:45:00
10:05 PM,44.6,42.8,93,30.25,10.0,Calm,Calm,-,N/A,,Clear,0,2012-10-11 03:05:00
10:25 PM,44.6,42.8,93,30.25,10.0,Calm,Calm,-,N/A,,Clear,0,2012-10-11 03:25:00
10:45 PM,44.6,41.0,87,30.25,10.0,Calm,Calm,-,N/A,,Clear,0,2012-10-11 03:45:00
11:05 PM,44.6,41.0,87,30.25,10.0,Calm,Calm,-,N/A,,Clear,0,2012-10-11 04:05:00
11:25 PM,44.6,41.0,87,30.24,10.0,Calm,Calm,-,N/A,,Clear,0,2012-10-11 04:25:00
11:45 PM,44.6,41.0,87,30.24,10.0,Calm,Calm,-,N/A,,Clear,0,2012-10-11 04:45:00